Location: Oshawa
(43.9000°N, 78.8670°W)
Time: 00:46:23
(UTC-04:00)

ITAMSAT 1 - Visible Passes

Search period start: 28 July 2017 00:00
Search period end: 07 August 2017 00:00
Orbit: 784 x 796 km, 98.8° (Epoch: 26 July)

Date Brightness Start Highest point End Pass type
(mag) Time Alt. Az. Time Alt. Az. Time Alt. Az.
28 Jul 10.2 03:28:52 10° ENE 03:31:03 13° E 03:33:15 10° ESE visible
28 Jul 7.7 05:05:57 10° NNE 05:11:11 83° WNW 05:16:21 10° SSW visible
29 Jul 8.3 04:36:40 10° NNE 04:41:47 54° E 04:46:50 10° S visible
30 Jul 9.3 04:07:43 10° NE 04:12:15 29° E 04:16:44 10° SSE visible
31 Jul 10.1 03:39:25 10° NE 03:42:36 16° E 03:45:45 10° SE visible
31 Jul 7.7 05:17:22 10° N 05:22:32 67° WNW 05:27:39 10° SSW visible
01 Aug 8.0 04:47:59 10° NNE 04:53:11 68° ESE 04:58:20 10° S visible
02 Aug 9.0 04:18:54 10° NNE 04:23:43 37° E 04:28:28 10° SSE visible
03 Aug 9.8 03:50:17 10° NE 03:54:07 20° E 03:57:53 10° SE visible
03 Aug 7.9 05:28:49 10° N 05:33:53 53° WNW 05:38:54 10° SW visible
04 Aug 10.4 03:23:24 10° ENE 03:24:21 10° E 03:25:18 10° E visible
04 Aug 7.7 04:59:21 10° NNE 05:04:34 85° ESE 05:09:45 10° SSW visible
05 Aug 8.6 04:30:09 10° NNE 04:35:09 46° E 04:40:06 10° S visible
06 Aug 9.5 04:01:19 10° NE 04:05:36 25° E 04:09:50 10° SSE visible
